Weather History for Jamestown, ND

Change the Weather History Date:

Saturday, September 8, 2012

  Actual Average Record
Temperature  
Mean Temperature 57 °F 61 °F  
Max Temperature 71 °F 74 °F 102 °F (1959)
Min Temperature 42 °F 48 °F 26 °F (1898)
Degree Days  
Heating Degree Days 8 6  
Month to date heating degree days 32 37  
Since 1 July heating degree days 62 103  
Cooling Degree Days 0 2  
Month to date cooling degree days 20 16  
Year to date cooling degree days 566 431  
Growing Degree Days 9 (Base 50)    
Moisture  
Dew Point 39 °F    
Average Humidity 52    
Maximum Humidity 80    
Minimum Humidity 23    
Precipitation  
Precipitation 0.00 in 0.08 in 1.58 in (1991)
Month to date precipitation 0.25 0.61  
Year to date precipitation 10.95 14.80  
Sea Level Pressure  
Sea Level Pressure 30.08 in    
Wind  
Wind Speed 13 mph (NW)    
Max Wind Speed 26 mph    
Max Gust Speed 37 mph    
Visibility 10 miles    
Events      
T = Trace of Precipitation, MM = Missing Value Source: NWS Daily Summary

Daily Weather History Graph

Daily Weather History Graph

Search for Another Location

Airport:

Trip Planner

Search our weather history database for the weather conditions in past years. The results will help you decide how hot, cold, wet, or windy it might be!

Date:

Astronomy

Sep. 08, 2012 Rise Set
Actual Time 7:03 AM CDT 7:59 PM CDT
Civil Twilight 6:33 AM CDT 8:30 PM CDT
Nautical Twilight 5:55 AM CDT 9:07 PM CDT
Astronomical Twilight 5:16 AM CDT 9:45 PM CDT
Moon No Moon Rise 3:14 PM CDT (9/8)
Length of Visible Light 13h 57m
Length of Day
12h 55m
Waning Gibbous, 48% of the Moon is Illuminated
Sep 8
Waning Gibbous
Sep 15
New
Sep 22
First Quarter
Sep 29
Full
Oct 8
Last Quarter

Hourly Weather History & Observations

Time (CDT) Temp. Dew Point Humidity Pressure Visibility Wind Dir Wind Speed Gust Speed Precip Events Conditions
12:56 AM 50.0 °F 42.8 °F 76% 30.07 in 10.0 mi WSW 8.1 mph - N/A   Clear
1:56 AM 50.0 °F 43.0 °F 77% 30.07 in 10.0 mi WSW 5.8 mph - N/A   Clear
2:56 AM 50.0 °F 44.1 °F 80% 30.05 in 10.0 mi West 6.9 mph - N/A   Clear
3:56 AM 50.0 °F 43.0 °F 77% 30.04 in 10.0 mi WSW 5.8 mph - N/A   Clear
4:56 AM 51.1 °F 43.0 °F 74% 30.01 in 10.0 mi West 10.4 mph - N/A   Clear
5:56 AM 54.0 °F 42.1 °F 64% 29.99 in 10.0 mi West 12.7 mph - N/A   Clear
6:56 AM 53.1 °F 41.0 °F 64% 29.98 in 10.0 mi West 9.2 mph - N/A   Clear
7:56 AM 55.0 °F 42.1 °F 62% 29.99 in 10.0 mi WNW 15.0 mph - N/A   Clear
8:56 AM 60.1 °F 43.0 °F 53% 30.01 in 10.0 mi NW 20.7 mph - N/A   Clear
9:56 AM 59.0 °F 46.0 °F 62% 30.04 in 10.0 mi North 21.9 mph 27.6 mph N/A   Clear
10:56 AM 63.0 °F 46.0 °F 54% 30.06 in 10.0 mi North 23.0 mph 31.1 mph N/A   Clear
11:56 AM 64.0 °F 43.0 °F 46% 30.09 in 10.0 mi North 17.3 mph 29.9 mph N/A   Clear
12:56 PM 66.0 °F 39.9 °F 38% 30.09 in 10.0 mi NNW 20.7 mph 29.9 mph N/A   Clear
1:56 PM 66.9 °F 37.9 °F 34% 30.10 in 10.0 mi NNW 21.9 mph 34.5 mph N/A   Clear
2:56 PM 69.1 °F 36.0 °F 30% 30.10 in 10.0 mi North 20.7 mph 29.9 mph N/A   Clear
3:56 PM 70.0 °F 33.1 °F 26% 30.11 in 10.0 mi North 24.2 mph 32.2 mph N/A   Clear
4:56 PM 70.0 °F 32.0 °F 25% 30.10 in 10.0 mi North 18.4 mph 26.5 mph N/A   Clear
5:56 PM 69.1 °F 30.9 °F 24% 30.11 in 10.0 mi NNW 23.0 mph 31.1 mph N/A   Clear
6:56 PM 68.0 °F 30.9 °F 25% 30.12 in 10.0 mi North 13.8 mph 23.0 mph N/A   Clear
7:56 PM 61.0 °F 33.1 °F 35% 30.14 in 10.0 mi NNW 8.1 mph - N/A   Clear
8:56 PM 51.1 °F 36.0 °F 56% 30.16 in 10.0 mi NNW 5.8 mph - N/A   Clear
9:56 PM 48.9 °F 37.0 °F 64% 30.18 in 10.0 mi North 5.8 mph - N/A   Clear
11:56 PM 46.9 °F 37.9 °F 71% 30.19 in 10.0 mi Calm Calm - N/A   Clear